Regional Weather Roundup
Issued by NWS

Home | Current Version | Previous Version | Text Only | Print | Product List | Glossary Off
Versions: 1 2 3 4 5 6 7 8 9 10 11 12 13 14 15 16 17 18 19 20 21 22 23 24 25 26 27 28 29 30 31 32 33 34 35 36 37 38 39 40 41 42 43 44 45 46 47 48 49 50

000
ASUS43 KDTX 230601
RWRMI
MICHIGAN HOURLY REGIONAL WEATHER ROUNDUP
NATIONAL WEATHER SERVICE DETROIT/PONTIAC MI
200 AM EDT THU OCT 23 2014

NOTE: "FAIR" INDICATES FEW OR NO CLOUDS BELOW 12,000 FEET WITH NO
SIGNIFICANT WEATHER AND/OR OBSTRUCTION TO VISIBILITY.

MIZ047>049-052>055-059>063-066>070-074>076-081>083-230700-
SOUTHEAST LOWER MICHIGAN

CITY           SKY/WX    TMP DP  RH WIND       PRES   REMARKS
ADRIAN         CLEAR     36  34  92 CALM      30.28F
6HR MIN TEMP:  36; 6HR MAX TEMP:  46;

ALMA             N/A     34  33  96 CALM      30.30S FOG
ANN ARBOR      CLEAR     32  30  92 CALM      30.27F
BAD AXE        CLEAR     28  28 100 CALM      30.28F FOG
6HR MIN TEMP:  28; 6HR MAX TEMP:  36;

CARO           CLEAR     29  29  99 CALM      30.28F
DETROIT CITY   CLEAR     42  37  82 N3        30.27S
6HR MIN TEMP:  42; 6HR MAX TEMP:  51;

DETROIT        CLEAR     39  37  92 NW3       30.28F
6HR MIN TEMP:  39; 6HR MAX TEMP:  48;

FLINT          CLEAR     33  29  85 CALM      30.29R
6HR MIN TEMP:  31; 6HR MAX TEMP:  46;

GROSSE ILE     CLEAR     41  37  87 NW7       30.26F
HILLSDALE      CLEAR     31  31 100 CALM      30.27S FOG
6HR MIN TEMP:  31; 6HR MAX TEMP:  38;

HOWELL         CLEAR     32  32 100 CALM      30.27F FOG
6HR MIN TEMP:  32; 6HR MAX TEMP:  42;


CITY           SKY/WX    TMP DP  RH WIND       PRES   REMARKS
JACKSON        CLEAR     31  28  89 CALM      30.28S
6HR MIN TEMP:  30; 6HR MAX TEMP:  40;

LAMBERTVILLE   CLEAR     36  34  93 CALM      30.28S FOG
LANSING        CLEAR     34  33  96 CALM      30.30S FOG
6HR MIN TEMP:  33; 6HR MAX TEMP:  45;

LAPEER         FAIR      31  30  98 CALM      30.28F
MASON          CLEAR     31  31  98 CALM      30.28F FOG
MONROE         CLEAR     37  36  93 NW3       30.26F
MT. CLEMENS    CLEAR     38  38  99 NW7       30.25S WCI  33
6HR MIN TEMP:  38; 6HR MAX TEMP:  44;

PONTIAC        CLEAR     37  34  89 NW3       30.27S
6HR MIN TEMP:  37; 6HR MAX TEMP:  46;

PORT HOPE        N/A     34  33  96 W3        30.26F
6HR MIN TEMP:  34; 6HR MAX TEMP:  46;

PORT HURON     CLEAR     36  36 100 NW7       30.27R WCI  30
TRI CITIES     CLEAR     36  32  85 W3        30.30S
6HR MIN TEMP:  35; 6HR MAX TEMP:  47;

TROY           CLEAR     40  37  86 NW5       30.28F
SAGINAW HB     CLEAR     34  34 100 CALM      30.29S
$$
MIZ043>046-050>051-056>058-064>065-071>073-077>080-230700-
SOUTHWEST LOWER MICHIGAN

CITY           SKY/WX    TMP DP  RH WIND       PRES   REMARKS
BATTLE CREEK   CLEAR     35  32  88 CALM      30.28F
6HR MIN TEMP:  33; 6HR MAX TEMP:  46;

BENTON HARBOR  CLEAR     31  31 100 E3        30.28S FOG
6HR MIN TEMP:  31; 6HR MAX TEMP:  39;

BIG RAPIDS     CLEAR     30  30 100 CALM      30.29R
6HR MIN TEMP:  30; 6HR MAX TEMP:  40;

COLDWATER      FOG       32  32 100 CALM      30.28S VSB 1/4
6HR MIN TEMP:  32; 6HR MAX TEMP:  45;

FREMONT        FOG       32  32  99 CALM      30.28F VSB 1
6HR MIN TEMP:  31; 6HR MAX TEMP:  44;

HOLLAND        CLEAR     35  32  88 CALM      30.29S
6HR MIN TEMP:  35; 6HR MAX TEMP:  46;

GRAND RAPIDS   CLEAR     33  31  92 CALM      30.29S
6HR MIN TEMP:  33; 6HR MAX TEMP:  42;

IONIA          FAIR      41  37  86 CALM      30.28F
KALAMAZOO      FOG       32  30  92 CALM      30.29S VSB 1/2
6HR MIN TEMP:  32; 6HR MAX TEMP:  43;

LUDINGTON      CLEAR     30  30  97 E3        30.28F
6HR MIN TEMP:  27; 6HR MAX TEMP:  35;

MARSHALL       FOG       29  28  99 CALM      30.28S VSB 1/2
MOUNT PLEASANT FOG       29  29  99 CALM      30.29S VSB 3/4
6HR MIN TEMP:  29; 6HR MAX TEMP:  38;

MUSKEGON       CLEAR     32  29  88 SE3       30.29F
6HR MIN TEMP:  32; 6HR MAX TEMP:  41;

SOUTH HAVEN    CLEAR     31  31  97 CALM      30.29S FOG
$$
MIZ016>042-230700-
NORTHERN LOWER MICHIGAN

CITY           SKY/WX    TMP DP  RH WIND       PRES   REMARKS
ALPENA         FOG       28  27  96 CALM      30.29S VSB 1
6HR MIN TEMP:  27; 6HR MAX TEMP:  39;

BEAVER ISLAND  CLEAR     29  29 100 CALM      30.26F
6HR MIN TEMP:  28; 6HR MAX TEMP:  34;

BELLAIRE       FOG       29  28  96 CALM      30.29S VSB 1/2
CADILLAC       CLEAR     23  23 100 CALM      30.27R
CHARLEVOIX     CLEAR     33  33 100 SE5       30.30S WCI  29
6HR MIN TEMP:  33; 6HR MAX TEMP:  37;

FRANKFORT      CLEAR     31  28  90 CALM      30.27S
GAYLORD        CLEAR     30  26  85 CALM      30.26F
6HR MIN TEMP:  27; 6HR MAX TEMP:  41;

GRAYLING       CLEAR     25  24  96 CALM      30.28S
6HR MIN TEMP:  24; 6HR MAX TEMP:  34;

HARBOR SPRINGS SNOW      32  31  96 NE5       30.28S VSB 1/4 WCI  27
HOUGHTON LAKE  PTCLDY    26  25  96 E5        30.28F WCI  20
6HR MIN TEMP:  26; 6HR MAX TEMP:  36;

MANISTEE       CLEAR     28  25  86 E6        30.28F WCI  22
OSCODA         CLEAR     29  28  97 CALM      30.29R
PELLSTON       CLEAR     25  24  96 CALM      30.28F
6HR MIN TEMP:  25; 6HR MAX TEMP:  37;

TRAVERSE CITY  CLEAR     31  28  89 CALM      30.27S
6HR MIN TEMP:  30; 6HR MAX TEMP:  39;

$$
MIZ007>008-015-230700-
EASTERN UPPER MICHIGAN

CITY           SKY/WX    TMP DP  RH WIND       PRES   REMARKS
KINROSS        PTCLDY    30  30 100 SE3       30.27F
6HR MIN TEMP:  30; 6HR MAX TEMP:  39;

MACKINAC ISLAN CLEAR     40  36  83 S8        30.27S WCI  35
6HR MIN TEMP:  39; 6HR MAX TEMP:  42;

NEWBERRY       CLEAR     31  30  99 S5        30.24F WCI  26
S. S. MARIE    PTCLDY    33  31  92 E3        30.26F
6HR MIN TEMP:  31; 6HR MAX TEMP:  41;

MUNISING         N/A     38  33  82 S8        30.20F WCI  32
6HR MIN TEMP:  37; 6HR MAX TEMP:  42;

$$
MIZ004>006-011>014-085-230700-
CENTRAL UPPER MICHIGAN

CITY           SKY/WX    TMP DP  RH WIND       PRES   REMARKS
MANISTIQUE     CLEAR     44  37  77 S8        30.23F
ESCANABA       CLEAR     28  27  93 CALM      30.22F
6HR MIN TEMP:  28; 6HR MAX TEMP:  43;

MENOMINEE      CLEAR     39  36  87 S5        30.22S
6HR MIN TEMP:  39; 6HR MAX TEMP:  43;

SAWYER-GWINN   CLOUDY    34  33  96 S12       30.18F FOG     WCI  26
6HR MIN TEMP:  33; 6HR MAX TEMP:  40;

$$
MIZ001>003-009>011-084-230700-
WESTERN UPPER MICHIGAN

CITY           SKY/WX    TMP DP  RH WIND       PRES   REMARKS
IRON MOUNTAIN  CLOUDY    39  37  92 S7        30.18F WCI  34
6HR MIN TEMP:  35; 6HR MAX TEMP:  42;

HOUGHTON       CLOUDY    43  33  68 S9G20     30.11S
6HR MIN TEMP:  40; 6HR MAX TEMP:  46;

COPPER HARBOR    N/A     43  39  86 SW13G21   30.11R
6HR MIN TEMP:  43; 6HR MAX TEMP:  48;

IRONWOOD       CLOUDY    48  36  61 SW9       30.05R
6HR MIN TEMP:  48; 6HR MAX TEMP:  52;

$$

ABBREVIATIONS USED IN REMARKS
   TC - TEMPERATURE IN CELSIUS
  WCI - WIND CHILL INDEX
   HX - HEAT INDEX
  VSB - VISIBILITY




USA.gov is the U.S. government's official web portal to all federal, state and local government web resources and services.